User: anonymous   Login
Location: Unspecified
(0.0000°N, 0.0000°E)
Time: 03:57:27
(UTC+00:00)
Language:

Landsat 7 - Orbit

View from above orbital plane
View from above orbital plane
View from above satellite
View from above satellite

Ground track
Ground track

The orbit data is extracted from the following two-line orbital elements,

1 25682U 99020A   15064.65112684  .00000622  00000-0  14813-3 0  9992
2 25682 098.2278 135.8780 0001318 073.2509 286.8831 14.57109571845061
Epoch (UTC): 05 March 2015 15:37:37
Eccentricity: 0.0001318
inclination: 98.2278°
perigee height: 701 km
apogee height: 703 km
right ascension of ascending node: 135.8780°
argument of perigee: 73.2509°
revolutions per day: 14.57109571
mean anomaly at epoch: 286.8831°
orbit number at epoch: 84506

The dashed part of the orbit path shows where the satellite is in the earth's shadow,  

DLR